TITAN 3C TRANSTAGE DEB, 38691

Orbit data source: Space-Track

TITAN 3C TRANSTAGE DEB, 38691 is space debris in GEO originally from a launch on Thu, 26 Sep 1968 UTC launched from the Air Force Eastern Test Range (AFETR). Debris objects in space refer to the collection of defunct objects orbiting the Earth. Examples of debris include non-operational satellites, rocket bodies, and fragments generated from explosions, collisions, or faulty payload assembly.

Not visible in the next 10 days
Identifier
38691, 1968-081R
Orbit
GEO
Country
Flag of USUS
Related business
Manufacturer
Unknown
Mission
Spacecraft
Bus & Motor
Unknown
Mass
Unknown
Launch date (UTC)
1968-09-26 (57 years ago)
Launch vehicle
Unknown
Launch site
Air Force Eastern Test Range (AFETR)
Object type
Payload
Rocket body
Debris
Shape & HBR
Unknown shape, 1.1 m
Radar Cross Section
Small (<0.1 m²)

Expand to show TLE details & history
Last TLE update: 17 hours ago

TLE from 17 hours ago
0 TITAN 3C TRANSTAGE DEB
1 38691U 68081R   25291.83433471 -.00000193  00000-0  00000-0 0  9996
2 38691   1.9340  41.8053 0195203 262.6629  95.1599  1.00722757 48933
Epoch: 2025-10-18T20:01Z
TLE epoch observation values (Epoch: 2025-10-18T20:01:26.518Z)
Latitude
-0.00001°
Longitude
73.8988°
Altitude
35,746.789 km
Speed
3.073 km/s
True Right ascension
02h 47m 16s
True Declination
0° 00' 00"
Sunlit
Object was in daylight at epoch
Visualization orbit readout
Latitude
Unknown
Longitude
Unknown
Altitude
Unknown
Speed
Unknown
Apparent Right ascension
Unknown
Apparent Declination
Unknown
Sunlit
N/A
Visualization observer readout
Local Sidereal Time
07:45:04
Azimuth
Unknown
Elevation
Unknown
Doppler factor
Unknown
Orbital elements
Apogee altitude
36,482.346 km
Perigee altitude
34,841.085 km
Semi-major axis
42,039.852 km
Eccentricity
0.01952
Inclination
1.934°
RAAN
41.8053°
Arg. of periapsis
262.6629°
True anomaly
97.38226°
Mean anomaly
95.1599°
Eccentric anomaly
96.27164°
Mean motion
0.2518 °/min
Orbital period
1,429.72 mins
BSTAR
0
Loading maneuver chart data...
Computing Atmospheric mass density...

Documentation

Showing up to 5 results
|